Погода в Джамку

Россия / Хабаровский край     51°07′15″N   134°38′40″E
темп.,
°C
ветер,
м/с
пор.,
м/с
влажн.,
%
обл.,
%
осадки,
мм/ч
давл.,
гПа
погр.,
м
17 мая, вт
вт1701:00−2ююв218149 0.0 100412
04:00−3ююв228216 0.0 100516
07:00+1ююз126197 0.0 1004128
10:00+6зюз2448100 0.1 1003949
13:00+6зюз3576100 0.2 1003935
16:00+7зюз5869100 0.8 10031212
19:00+4ююз1397100 0.3 1005251
22:00+3юз0097100 0.5 100616
18 мая, ср
ср1801:00+3зюз1196100 0.0 100618
04:00+2юз1196100 0.0 100613
07:00+2зюз1292100 0.1 1008354
10:00+5ююз237540 0.5 1008810
13:00+10з345096 1.2 10071870
16:00+11з453996 1.7 10062153
19:00+9з3549100 0.3 1007922
22:00+4ю227541 0.3 101030
19 мая, чт
чт1901:00+2ю228195 0.0 101022
04:00+2ю2186100 0.0 100913
07:00+5ююз1176100 0.1 100699
10:00+5ююв0192100 5.2 1006207
13:00+4ссв2297100 1.6 1006274
16:00+4св1195100 3.8 1006377
19:00+3св2399100 0.1 1008285
22:00+2св2399100 0.1 1009165
20 мая, пт
пт2001:00+1всв1296100 0.0 1009245
04:00+1в1190100 0.0 100830
07:00+2ююв1187100 0.0 1008394
10:00+7зсз1171100 0.0 1006627
13:00+10с2261100 0.3 10031003
16:00+6с1293100 2.6 1003260
19:00+5св1297100 0.3 1002183
22:00+4всв129798 0.3 100281
21 мая, сб
сб2101:00+4ссв1299100 0.4 100281
04:00+4ссв2499100 2.0 1002246
07:00+3св2498100 1.3 1004458
10:00+3ссв2498100 2.6 1005499
13:00+3св1397100 1.3 1007538
16:00+4св1296100 1.5 1007403
19:00+4всв1293100 0.1 1008279
22:00+3всв229699 0.1 100989